TimeCST,TemperatureF,Dew PointF,Humidity,Sea Level PressureIn,VisibilityMPH,Wind Direction,Wind SpeedMPH,Gust SpeedMPH,PrecipitationIn,Events,Conditions,WindDirDegrees,DateUTC
12:55 AM,-18.9,-25.1,74,30.28,10.0,WNW,10.4,-,N/A,,Clear,290,2013-01-21 06:55:00
1:55 AM,-20.0,-26.0,74,30.28,10.0,West,9.2,-,N/A,,Clear,280,2013-01-21 07:55:00
2:55 AM,-20.9,-27.0,73,30.28,10.0,West,8.1,-,N/A,,Clear,270,2013-01-21 08:55:00
3:55 AM,-22.0,-27.9,74,30.28,10.0,West,10.4,-,N/A,,Clear,280,2013-01-21 09:55:00
4:55 AM,-22.0,-27.9,74,30.29,10.0,West,10.4,-,N/A,,Scattered Clouds,280,2013-01-21 10:55:00
5:55 AM,-22.0,-27.9,74,30.29,8.0,West,9.2,-,N/A,,Overcast,280,2013-01-21 11:55:00
6:15 AM,-22.0,-27.4,76,30.15,7.0,West,8.1,-,N/A,,Mostly Cloudy,280,2013-01-21 12:15:00
6:28 AM,-23.8,-27.4,83,30.15,9.0,West,6.9,-,N/A,,Scattered Clouds,280,2013-01-21 12:28:00
6:55 AM,-23.1,-29.0,74,30.29,10.0,West,6.9,-,N/A,,Mostly Cloudy,280,2013-01-21 12:55:00
7:55 AM,-24.0,-29.0,77,30.29,10.0,West,5.8,-,N/A,,Mostly Cloudy,260,2013-01-21 13:55:00
8:55 AM,-23.1,-27.9,78,30.30,10.0,West,6.9,-,N/A,,Mostly Cloudy,270,2013-01-21 14:55:00
9:55 AM,-20.9,-27.0,73,30.31,6.0,West,6.9,-,N/A,,Haze,270,2013-01-21 15:55:00
10:06 AM,-20.2,-27.4,69,30.16,7.0,West,9.2,-,N/A,,Overcast,280,2013-01-21 16:06:00
10:34 AM,-18.4,-25.6,70,30.16,9.0,West,9.2,-,N/A,,Overcast,270,2013-01-21 16:34:00
10:55 AM,-18.0,-25.1,70,30.31,8.0,West,6.9,-,N/A,,Overcast,260,2013-01-21 16:55:00
11:55 AM,-16.1,-24.0,67,30.29,6.0,West,8.1,-,N/A,,Haze,270,2013-01-21 17:55:00
12:06 PM,-14.8,-23.8,64,30.14,8.0,West,8.1,16.1,N/A,,Overcast,270,2013-01-21 18:06:00
12:55 PM,-14.1,-24.0,61,30.26,10.0,WNW,10.4,-,N/A,,Scattered Clouds,290,2013-01-21 18:55:00
1:43 PM,-13.0,-23.8,59,30.11,3.0,West,9.2,-,N/A,,Haze,280,2013-01-21 19:43:00
1:55 PM,-13.0,-22.0,64,30.25,1.8,West,11.5,-,N/A,,Haze,270,2013-01-21 19:55:00
2:55 PM,-11.9,-20.0,67,30.26,1.8,WNW,13.8,18.4,0.00,,Haze,290,2013-01-21 20:55:00
3:02 PM,-11.2,-22.0,59,30.12,2.5,West,12.7,-,N/A,,Haze,270,2013-01-21 21:02:00
3:19 PM,-11.2,-23.8,54,30.12,4.0,West,15.0,-,N/A,,Haze,280,2013-01-21 21:19:00
3:55 PM,-11.9,-23.1,58,30.27,9.0,West,15.0,20.7,N/A,,Mostly Cloudy,280,2013-01-21 21:55:00
4:04 PM,-13.0,-23.8,59,30.12,10.0,West,12.7,20.7,N/A,,Mostly Cloudy,280,2013-01-21 22:04:00
4:55 PM,-14.1,-22.0,68,30.27,7.0,West,5.8,-,N/A,,Scattered Clouds,270,2013-01-21 22:55:00
5:55 PM,-15.0,-23.1,67,30.28,10.0,West,8.1,-,N/A,,Partly Cloudy,280,2013-01-21 23:55:00
6:55 PM,-16.1,-23.1,71,30.29,10.0,West,6.9,-,N/A,,Clear,270,2013-01-22 00:55:00
7:28 PM,-16.6,-23.8,70,30.14,10.0,West,6.9,-,N/A,,Mostly Cloudy,280,2013-01-22 01:28:00
7:45 PM,-16.6,-23.8,70,30.14,8.0,West,6.9,-,N/A,,Mostly Cloudy,270,2013-01-22 01:45:00
7:55 PM,-17.0,-23.1,74,30.30,10.0,West,6.9,-,N/A,,Scattered Clouds,270,2013-01-22 01:55:00
8:55 PM,-18.9,-24.0,78,30.31,9.0,West,5.8,-,N/A,,Partly Cloudy,270,2013-01-22 02:55:00
9:55 PM,-20.9,-25.1,81,30.32,10.0,West,3.5,-,N/A,,Clear,260,2013-01-22 03:55:00
10:55 PM,-20.9,-26.0,77,30.32,10.0,West,5.8,-,N/A,,Clear,260,2013-01-22 04:55:00
11:55 PM,-23.1,-27.9,78,30.33,10.0,West,4.6,-,N/A,,Clear,260,2013-01-22 05:55:00